Simultaneous Nadir Overpasses (SNOs) Predictions

Prediction of SNOs between AURA and NPP Satellite Orbit:

Table of predicted SNOs for the next 14.0 days since TLE Epoch: 1/13/2024
Index Date (AURA) Time (AURA) Lat,Lon (AURA) SZA (AURA ) Date (NPP) Time (NPP) Lat,Lon (NPP) SZA (NPP ) Distance(km) Time Diff (sec)
1 01/13/2024 13:45:20 80.13,-123.35 112.74 01/13/2024 13:44:27 80.12,-123.47 112.80 2.33 53
2 01/13/2024 14:34:39 -80.32, 46.08 67.58 01/13/2024 14:35:05 -80.33, 46.20 67.62 2.27 26
3 01/16/2024 04:20:22 80.17, 18.26 112.26 01/16/2024 04:19:52 80.16, 18.11 112.31 2.82 30
4 01/16/2024 05:09:41 -80.36,-172.29 68.07 01/16/2024 05:10:30 -80.36,-172.19 68.12 1.86 49
5 01/18/2024 18:55:22 80.23, 160.05 111.70 01/18/2024 18:55:16 80.23, 159.95 111.72 1.91 6
6 01/18/2024 19:44:41 -80.42, -30.47 68.63 01/18/2024 19:45:54 -80.42, -30.31 68.71 2.84 73
7 01/21/2024 08:41:00 -80.14, 132.88 68.67 01/21/2024 08:40:00 -80.14, 132.79 68.62 1.78 60
8 01/21/2024 09:30:19 80.31, -57.97 111.06 01/21/2024 09:30:38 80.31, -57.94 111.04 0.42 19
9 01/23/2024 23:15:56 -80.24, -84.94 69.40 01/23/2024 23:15:22 -80.24, -84.86 69.39 1.65 34
10 01/24/2024 00:05:17 80.34, 83.59 110.45 01/24/2024 00:06:03 80.33, 83.48 110.43 2.36 46
11 01/26/2024 13:50:53 -80.26, 56.52 70.03 01/26/2024 13:50:47 -80.26, 56.51 70.03 0.17 6



Historial Predications of SNOs between AURA and NPP
